Zurück zum Katalog

FENGYUN 1C DEB

LostSSO
NORAD 41004·DEBRIS·🇨🇳 China

Gestartet May 10, 1999 von Taiyuan Satellite Launch Center

Loading…

Nächste Überflüge (nächste 24 Stunden)

TLE

VeraltetSource: Space-Track

Epoche: Sep 2, 2018, 13:44 UTC

1 41004U 99025EXJ 18245.57230416 -.00000153  00000-0 -12264-3 0  9991
2 41004  99.2254  13.6896 0267506 111.7282 251.2561 13.59204658209593

Verfolge FENGYUN 1C DEB in Echtzeit mit AllMySat

Download on the App Store